Stündliche Wetter Kyzylzhar

Heute, 11 Mai, Dienstag

Zeit Temperatur Niederschläge Wind Luftdruck Luftfeuchtigkeit
00:00 +13°C° 0 mm 5 m/S 744 mmHg 73%
01:00 +12°C° 0 mm 4 m/S 744 mmHg 76%
02:00 +12°C° 0 mm 4 m/S 745 mmHg 77%
03:00 +11°C° 0 mm 4 m/S 745 mmHg 79%
04:00 +11°C° 0 mm 4 m/S 745 mmHg 81%
05:00 +12°C° 0 mm 4 m/S 746 mmHg 76%
06:00 +13°C° 0 mm 5 m/S 746 mmHg 71%
07:00 +14°C° 0 mm 5 m/S 747 mmHg 67%
08:00 +15°C° 0 mm 6 m/S 747 mmHg 59%
09:00 +17°C° 0 mm 6 m/S 747 mmHg 51%
10:00 +20°C° 0 mm 6 m/S 748 mmHg 43%
11:00 +20°C° 0 mm 6 m/S 748 mmHg 41%
12:00 +21°C° 0 mm 5 m/S 748 mmHg 38%
13:00 +22°C° 0 mm 5 m/S 748 mmHg 36%
14:00 +22°C° 0 mm 5 m/S 748 mmHg 35%
15:00 +23°C° 0 mm 5 m/S 748 mmHg 34%
16:00 +23°C° 0 mm 4 m/S 748 mmHg 33%
17:00 +22°C° 0 mm 4 m/S 748 mmHg 37%
18:00 +21°C° 0 mm 4 m/S 748 mmHg 40%
19:00 +20°C° 0 mm 4 m/S 748 mmHg 44%
20:00 +18°C° 0 mm 4 m/S 748 mmHg 45%
21:00 +17°C° 0 mm 4 m/S 748 mmHg 47%
22:00 +15°C° 0 mm 4 m/S 748 mmHg 49%
23:00 +14°C° 0 mm 4 m/S 748 mmHg 51%

Morgen, 12 Mai, Mittwoch

Zeit Temperatur Niederschläge Wind Luftdruck Luftfeuchtigkeit
00:00 +14°C° 0 mm 4 m/S 748 mmHg 53%
01:00 +13°C° 0 mm 4 m/S 749 mmHg 55%
02:00 +13°C° 0 mm 4 m/S 749 mmHg 55%
03:00 +12°C° 0 mm 4 m/S 749 mmHg 54%
04:00 +12°C° 0 mm 3 m/S 749 mmHg 54%
05:00 +13°C° 0 mm 4 m/S 750 mmHg 52%
06:00 +14°C° 0 mm 4 m/S 750 mmHg 51%
07:00 +15°C° 0 mm 5 m/S 750 mmHg 49%
08:00 +16°C° 0 mm 5 m/S 750 mmHg 44%
09:00 +19°C° 0 mm 5 m/S 750 mmHg 39%
10:00 +20°C° 0 mm 5 m/S 750 mmHg 34%
11:00 +21°C° 0 mm 5 m/S 750 mmHg 32%
12:00 +22°C° 0 mm 5 m/S 750 mmHg 30%
13:00 +23°C° 0 mm 5 m/S 750 mmHg 28%
14:00 +23°C° 0 mm 5 m/S 750 mmHg 27%
15:00 +25°C° 0 mm 5 m/S 750 mmHg 26%
16:00 +25°C° 0 mm 5 m/S 749 mmHg 26%
17:00 +23°C° 0 mm 4 m/S 749 mmHg 31%
18:00 +21°C° 0 mm 4 m/S 749 mmHg 36%
19:00 +20°C° 0 mm 3 m/S 749 mmHg 41%
20:00 +19°C° 0 mm 3 m/S 749 mmHg 42%
21:00 +18°C° 0 mm 3 m/S 749 mmHg 42%
22:00 +17°C° 0 mm 3 m/S 750 mmHg 43%
23:00 +16°C° 0 mm 3 m/S 750 mmHg 44%

übermorgen, 13 Mai, Donnerstag

Zeit Temperatur Niederschläge Wind Luftdruck Luftfeuchtigkeit
00:00 +16°C° 0 mm 3 m/S 750 mmHg 45%
01:00 +14°C° 0 mm 3 m/S 750 mmHg 46%
02:00 +14°C° 0 mm 3 m/S 749 mmHg 47%
03:00 +13°C° 0 mm 3 m/S 749 mmHg 48%
04:00 +13°C° 0 mm 3 m/S 749 mmHg 49%
05:00 +14°C° 0 mm 3 m/S 750 mmHg 48%
06:00 +17°C° 0 mm 3 m/S 750 mmHg 47%
07:00 +18°C° 0 mm 3 m/S 750 mmHg 45%
08:00 +20°C° 0 mm 3 m/S 750 mmHg 40%
09:00 +22°C° 0 mm 4 m/S 750 mmHg 35%
10:00 +25°C° 0 mm 4 m/S 750 mmHg 30%
11:00 +25°C° 0 mm 4 m/S 750 mmHg 29%
12:00 +26°C° 0 mm 3 m/S 750 mmHg 27%
13:00 +27°C° 0 mm 3 m/S 750 mmHg 25%
14:00 +27°C° 0 mm 3 m/S 750 mmHg 24%
15:00 +27°C° 0 mm 3 m/S 750 mmHg 23%
16:00 +28°C° 0 mm 2 m/S 749 mmHg 23%
17:00 +26°C° 0 mm 2 m/S 749 mmHg 27%
18:00 +25°C° 0 mm 2 m/S 749 mmHg 31%
19:00 +24°C° 0 mm 2 m/S 749 mmHg 35%
20:00 +23°C° 0 mm 2 m/S 749 mmHg 36%
21:00 +20°C° 0 mm 2 m/S 749 mmHg 36%
22:00 +19°C° 0 mm 2 m/S 749 mmHg 37%
23:00 +19°C° 0 mm 2 m/S 749 mmHg 38%

14 Mai, Freitag

Zeit Temperatur Niederschläge Wind Luftdruck Luftfeuchtigkeit
00:00 +18°C° 0 mm 2 m/S 749 mmHg 39%
01:00 +17°C° 0 mm 2 m/S 749 mmHg 41%
02:00 +18°C° 0 mm 1 m/S 749 mmHg 41%
03:00 +16°C° 0 mm 1 m/S 749 mmHg 42%
04:00 +16°C° 0 mm 1 m/S 749 mmHg 43%
05:00 +19°C° 0 mm 1 m/S 750 mmHg 40%
06:00 +20°C° 0 mm 1 m/S 750 mmHg 38%
07:00 +22°C° 0 mm 1 m/S 750 mmHg 35%
08:00 +24°C° 0 mm 1 m/S 750 mmHg 32%
09:00 +26°C° 0 mm 1 m/S 750 mmHg 28%
10:00 +27°C° 0 mm 1 m/S 750 mmHg 25%
11:00 +28°C° 0 mm 1 m/S 750 mmHg 24%
12:00 +29°C° 0 mm 1 m/S 750 mmHg 23%
13:00 +29°C° 0 mm 1 m/S 749 mmHg 22%
14:00 +29°C° 0 mm 1 m/S 749 mmHg 22%
15:00 +30°C° 0 mm 1 m/S 749 mmHg 21%
16:00 +30°C° 0 mm 1 m/S 749 mmHg 21%
17:00 +29°C° 0 mm 1 m/S 749 mmHg 26%
18:00 +28°C° 0 mm 1 m/S 748 mmHg 31%
19:00 +27°C° 0 mm 1 m/S 748 mmHg 35%
20:00 +25°C° 0 mm 1 m/S 748 mmHg 37%
21:00 +24°C° 0 mm 2 m/S 748 mmHg 38%
22:00 +21°C° 0 mm 2 m/S 748 mmHg 39%
23:00 +21°C° 0 mm 2 m/S 748 mmHg 41%

15 Mai, Samstag

Zeit Temperatur Niederschläge Wind Luftdruck Luftfeuchtigkeit
00:00 +20°C° 0 mm 2 m/S 748 mmHg 42%
01:00 +20°C° 0 mm 2 m/S 748 mmHg 44%
02:00 +19°C° 0 mm 2 m/S 748 mmHg 46%
03:00 +19°C° 0 mm 3 m/S 748 mmHg 48%
04:00 +18°C° 0 mm 3 m/S 748 mmHg 49%
05:00 +20°C° 0 mm 3 m/S 748 mmHg 48%
06:00 +21°C° 0 mm 3 m/S 748 mmHg 46%
07:00 +23°C° 0 mm 2 m/S 748 mmHg 44%
08:00 +25°C° 0 mm 2 m/S 748 mmHg 40%
09:00 +27°C° 0 mm 2 m/S 748 mmHg 36%
10:00 +29°C° 0 mm 2 m/S 748 mmHg 31%
11:00 +30°C° 0 mm 2 m/S 748 mmHg 29%
12:00 +30°C° 0 mm 2 m/S 747 mmHg 27%
13:00 +31°C° 0 mm 2 m/S 747 mmHg 25%
14:00 +31°C° 0 mm 2 m/S 747 mmHg 24%
15:00 +31°C° 0 mm 2 m/S 746 mmHg 24%
16:00 +31°C° 0 mm 2 m/S 746 mmHg 24%
17:00 +30°C° 0 mm 2 m/S 746 mmHg 28%
18:00 +29°C° 0 mm 2 m/S 746 mmHg 32%
19:00 +27°C° 0 mm 2 m/S 746 mmHg 36%
20:00 +26°C° 0 mm 2 m/S 746 mmHg 36%
21:00 +25°C° 0 mm 2 m/S 745 mmHg 37%
22:00 +24°C° 0 mm 2 m/S 745 mmHg 38%
23:00 +23°C° 0 mm 2 m/S 745 mmHg 41%

16 Mai, Sonntag

Zeit Temperatur Niederschläge Wind Luftdruck Luftfeuchtigkeit
00:00 +23°C° 0 mm 2 m/S 745 mmHg 43%
01:00 +22°C° 0 mm 1 m/S 745 mmHg 46%
02:00 +22°C° 0 mm 1 m/S 745 mmHg 46%
03:00 +20°C° 0 mm 2 m/S 745 mmHg 46%
04:00 +20°C° 0 mm 2 m/S 745 mmHg 46%
05:00 +21°C° 0 mm 2 m/S 745 mmHg 45%
06:00 +23°C° 0 mm 2 m/S 746 mmHg 44%
07:00 +25°C° 0 mm 2 m/S 746 mmHg 43%
08:00 +26°C° 0 mm 2 m/S 746 mmHg 39%
09:00 +28°C° 0 mm 2 m/S 746 mmHg 35%
10:00 +29°C° 0 mm 2 m/S 745 mmHg 31%
11:00 +30°C° 0 mm 2 m/S 745 mmHg 29%
12:00 +31°C° 0 mm 2 m/S 745 mmHg 26%
13:00 +31°C° 0 mm 1 m/S 745 mmHg 24%
14:00 +31°C° 0 mm 1 m/S 744 mmHg 23%
15:00 +31°C° 0 mm 1 m/S 744 mmHg 23%
16:00 +32°C° 0 mm 1 m/S 744 mmHg 23%
17:00 +30°C° 0 mm 2 m/S 744 mmHg 29%
18:00 +28°C° 0 mm 3 m/S 744 mmHg 35%
19:00 +26°C° 0 mm 4 m/S 744 mmHg 42%
20:00 +25°C° 0 mm 3 m/S 744 mmHg 45%
21:00 +24°C° 0 mm 3 m/S 744 mmHg 47%
22:00 +23°C° 0 mm 2 m/S 744 mmHg 50%
23:00 +23°C° 0 mm 2 m/S 744 mmHg 49%
Mehr zeigen

Wir brauchen deine Erlaubnis

Meteoprog und unser Service Anbieter werden persönliche Daten aufbewahren, so wie Cookies, Geräte Bezeichnung oder ähnliche Technologien von deinem Gerät und Prozess, so wie Persönliche Daten Inhalte und Werbungen, genauso wie social Media und den Verkehr zu analysieren.

  • Aufbewahrung und/oder Zugang zu deiner Geräte Informationen.

    Cookies, Geräte Bezeichnung oder andere Informationen, können aufbewahrt oder Zugang zu deinem Gerät erhalten, für den Grund, der oben angegeben wird.

  • Personalisierte Werbung und Inhalte, Messungen, Einblick in das Publikum und Produkt Entwicklung.

    Werbungen und Inhalte können personalisiert werden, basierend auf ein Profil. Mehr Daten können besser personalisierte Werbungen und Inhalte hinzufügen. Werbung und Inhalte können gezeigt und gemessen werden. Einblicke über das Publikum, welche die Werbung gesehen haben und den Inhalt, können abgeleitet werden. So wie Daten können genutzt werden, um es zu verbessern oder die Benutzer Erfahrung zu verbessern das System und die Software.

Wenn du “Ich stimme zu” klickst, erlaubst du uns, die Cookies zu benutzen die Geräte Bezeichnung, den Web oder ähnliche Technologien zu benutzen. Deine Settings, können in deinem Gerät bei deinem Browser geändert werden.

Für den bestimmten Zweck, berechtigten Interessen beruhen darauf, mehr als auf den Inhalt. Du kannst mehr darüber in unseren Privaten und Cookie Politik lesen.